FW9341 Weather Reports


time (UTC)temp
C
wind
direction
speed
KPH
gust
KPH
rain 1hr
cm
rain 24hr
cm
rain mn
cm
humidity
%
barometer
mb
20260504081541 8 136 0.0 3.2 0.00 0.00 0.00 68 998.5
20260504044529 10 0 0.0 1.6 0.00 0.00 0.00 58 1002.4
20260504043037 10 0 0.0 0.0 0.00 0.00 0.00 55 1002.8
20260504041530 10 0 0.0 0.0 0.00 0.00 0.00 56 1003.1
20260504040028 10 0 0.0 0.0 0.00 0.00 0.00 55 1003.4
20260504034530 10 0 0.0 1.6 0.00 0.00 0.00 58 1003.6
20260504033031 11 0 0.0 0.0 0.00 0.00 0.00 57 1003.8
20260504031533 11 156 0.0 1.6 0.00 0.00 0.00 53 1004.0
20260504030028 12 0 0.0 1.6 0.00 0.00 0.00 50 1004.3
20260504024533 12 0 0.0 1.6 0.00 0.00 0.00 51 1004.2
20260504023031 12 0 0.0 1.6 0.00 0.00 0.00 51 1004.3
20260504021530 13 169 0.0 1.6 0.00 0.00 0.00 49 1004.4
20260504020032 13 0 0.0 0.0 0.00 0.00 0.00 47 1004.5
20260504014538 14 169 0.0 0.0 0.00 0.00 0.00 44 1004.6
20260504013036 15 0 0.0 1.6 0.00 0.00 0.00 44 1004.7
20260504011531 16 226 0.0 1.6 0.00 0.00 0.00 39 1004.8
20260504010030 17 0 0.0 1.6 0.00 0.00 0.00 40 1004.9
20260504004533 17 0 0.0 3.2 0.00 0.00 0.00 37 1005.0
20260504003028 18 267 1.6 4.8 0.00 0.00 0.00 34 1005.0
20260504001528 18 274 1.6 9.7 0.00 0.00 0.00 33 1005.1
20260504000032 19 277 3.2 6.4 0.00 0.00 0.00 31 1005.2
20260503234530 20 280 3.2 14.5 0.00 0.00 0.00 29 1005.3
20260503233033 20 37 4.8 9.7 0.00 0.00 0.00 32 1005.4
20260503231528 21 304 3.2 14.5 0.00 0.00 0.00 32 1005.6
20260503230029 20 295 1.6 8.0 0.00 0.00 0.00 31 1005.6
20260503224529 20 315 3.2 8.0 0.00 0.00 0.00 31 1005.6
20260503223028 20 323 3.2 12.9 0.00 0.00 0.00 27 1005.7
20260503221529 20 331 4.8 9.7 0.00 0.00 0.00 31 1005.8
20260503220041 20 311 3.2 16.1 0.00 0.00 0.00 32 1005.8
20260503214530 20 264 6.4 16.1 0.00 0.00 0.00 33 1005.9
20260503213030 20 252 4.8 12.9 0.00 0.00 0.00 31 1006.0
20260503211527 20 274 3.2 16.1 0.00 0.00 0.00 35 1006.1
20260503210027 20 327 6.4 16.1 0.00 0.00 0.00 31 1006.4
20260503204532 20 218 3.2 12.9 0.00 0.00 0.00 34 1006.5
20260503203044 20 243 6.4 12.9 0.00 0.00 0.00 33 1006.8
20260503201533 20 315 3.2 11.3 0.00 0.00 0.00 34 1006.9
20260503200027 19 345 3.2 12.9 0.00 0.00 0.00 39 1007.0
20260503194538 20 149 3.2 14.5 0.00 0.00 0.00 40 1007.2
20260503193032 20 252 4.8 12.9 0.00 0.00 0.00 38 1007.3
20260503191530 20 282 6.4 17.7 0.00 0.00 0.00 37 1007.3
20260503190038 20 319 4.8 16.1 0.00 0.00 0.00 39 1007.3
20260503184530 19 333 4.8 14.5 0.00 0.00 0.00 38 1007.5
20260503183031 19 323 6.4 12.9 0.00 0.00 0.00 36 1007.5
20260503181530 19 306 4.8 12.9 0.00 0.00 0.00 40 1007.6
20260503180033 18 316 6.4 17.7 0.00 0.00 0.00 39 1007.9
20260503174528 18 323 6.4 17.7 0.00 0.00 0.00 37 1008.0
20260503173031 18 295 4.8 17.7 0.00 0.00 0.00 40 1008.1
20260503171532 18 281 8.0 17.7 0.00 0.00 0.00 42 1008.2